Location: Kermapucano
(48.0667°N, 3.3000°W)
Time: 18:38:41
(UTC+00:00)

Cosmos 1709 Rocket - Pass Details

Date: 29 November 2020
Orbit: 947 x 1003 km, 82.9° (Epoch: 26 January)

Event Time Altitude Azimuth Distance (km) Brightness Sun altitude
Rises 04:57:57 0° 193° (SSW) 3,706 6.9 -26.3°
Reaches altitude 10° 05:00:28 10° 196° (SSW) 2,764 6.2 -25.9°
Maximum altitude 05:06:50 73° 281° (W) 1,051 3.9 -24.9°
Drops below altitude 10° 05:13:15 10° 6° (N) 2,784 6.4 -23.8°
Sets 05:15:48 0° 8° (N) 3,735 7.1 -23.4°
